Keesler Air Force Base
KBIX : now visible

Airfield :











YOU CAN JOIN US ON...

 
LOGIN :

Register | Disclaimer

   EN    FR    IT 

 









Legend :    VFR   Marginal VFR   IFR   Intensive IFR   Very Intensive IFR
Visi :
Ceiling :
>= 8 km
>= 3000ft
5 to 8 km
1000 to 3000 ft
1500m to 5 km
500 to 1000 ft
800 to 1500m
200 to 500 ft
< 800m
< 200 ft
Symbols :   Thunderstorms  Fog  Heavy snow  Heavy precipitations  Wind > 20 kt






- Airport Elevation : 33 ft


KBIX - Keesler Air Force Base

CURRENT METAR :
  • 071656Z AUTO 32011KT 10SM CLR 27/12 A3015 RMK AO2 SLP213 T02660122

EXPIRED METARs :
  • 071556Z AUTO 35005KT 10SM CLR 25/14 A3015 RMK AO2 SLP213 T02520137
  • 071456Z AUTO 32006KT 10SM CLR 24/14 A3014 RMK AO2 SLP209 T02370135 51011

TAF TAF KBIX
Valid from the 07 at 10:00 until the 08 at 16:00 UTC


071000Z 0710/0816 35009KT 9999 SKC QNH3006INS
BECMG 0806/0807 VRB06KT 9999 SKC QNH3012INS TX27/0721Z TN14/0811Z
KZHU FIR / North America



MET'MAP, your aeronautical weather chart ! - Copyright ORBIFLY December 2007 - Disclaimer

ORBIFLY MET'MAP TEAM :

Programming & Development : Alexandra Zaïnal
Concept & original design : Baudouin d'Aumeries
Assistance for programming : Marc-Olivier Méhu
Technical & hardware support : Manuel Goepfert

Contact : metmap@orbifly.com




SOURCES & CREDITS :

   NOAA       Earth
Advisory